Flag for U.S.A. Weather past 2 weeks in Denver, Colorado, U.S.A.

Now
58 °F

Thunderstorms. Fog.


Feels Like: 55 °F
Forecast: 57 / 66 °F
Wind: 16 mph from South

Location: Buckley Air Force Base

Current Time: Jul 7, 2015 at 6:13:51 PM

Latest Report: Jul 7, 2015 at 4:58 PM


Visibility: 1 mi

Pressure: 30.00 "Hg (24.83 "Hg at 1593m altitude)

Humidity: 96%

Dew point: 57 °F

Location of DenverLocation

Historic Weather in Denver — Graph

°F

Denver temperature yesterday

Maximum temperature yesterday: 63 °F (at 1:02 AM)
Minimum temperature yesterday: 59 °F (at 7:58 AM)
Average temperature yesterday: 61 °F

Past Weeks' High & Low Weather Summary

 TemperatureHumidityPressure
High92 °F (Jul 4, 2:58 PM)100% (Jun 26, 3:58 AM)30.19 "Hg (Jun 26, 3:58 AM)
Low56 °F (Jul 2, 7:58 AM)20% (Jun 30, 1:58 PM)29.72 "Hg (Jul 5, 2:58 PM)
Average70 °F61%29.98 "Hg
* Reported Jun 22 4:58 PM — Jul 7 4:58 PM, Denver, Weather by CustomWeather, © 2015

Note: Actual official high and low records may vary slightly from our data, if they occured in-between our weather recording intervals... More about our weather records

Advertising

Denver weather history for previous 24 hours

 ConditionsComfort  
Time TempWeatherWind HumidityBarometerVisibility
4:58 PM
Tue, Jul 7
58 °FThunderstorms. Fog.16 mph96%30.00 "Hg1 mi
3:58 PM62 °FLight rain. Fog.15 mph70%30.00 "Hg4 mi
2:58 PM65 °FOvercast.14 mph65%29.98 "Hg4 mi
1:58 PM69 °FPartly sunny.12 mph59%29.97 "Hg4 mi
12:58 PM69 °FBroken clouds.5 mph58%29.98 "Hg7 mi
11:58 AM69 °FBroken clouds.10 mph58%29.99 "Hg6 mi
10:58 AM65 °FBroken clouds.14 mph65%30.01 "Hg5 mi
9:58 AM63 °FPartly sunny.12 mph71%30.03 "Hg5 mi
8:58 AM64 °FPartly sunny.17 mph69%30.04 "Hg7 mi
7:58 AM60 °FPartly sunny.14 mph76%30.08 "Hg7 mi
6:58 AM58 °FPartly sunny.13 mph80%30.07 "Hg7 mi
5:58 AM57 °FPartly cloudy.10 mph83%30.07 "Hg7 mi
4:58 AM58 °FOvercast.10 mph81%30.09 "Hg8 mi
3:58 AM58 °FPassing clouds.8 mph82%30.11 "Hg8 mi
2:58 AM58 °FOvercast.7 mph90%30.12 "Hg8 mi
1:58 AM58 °FMostly cloudy.5 mph92%30.14 "Hg7 mi
12:58 AM59 °FPassing clouds.8 mph84%30.14 "Hg8 mi
11:58 PM
Mon, Jul 6
59 °FPassing clouds.5 mph89%30.17 "Hg8 mi
10:58 PM60 °FPassing clouds.3 mph87%30.18 "Hg9 mi
9:58 PM60 °FOvercast.5 mph82%30.16 "Hg10 mi
8:58 PM61 °FOvercast.5 mph80%30.13 "Hg10 mi
7:58 PM62 °FOvercast.5 mph75%30.12 "Hg10 mi
6:58 PM62 °FMore clouds than sun.5 mph79%30.12 "Hg10 mi
Weather by CustomWeather, © 2015

See weather overviewHow to use our weather pages